カタログに戻る

STARLINK-6175

運用中通信VLEO
NORAD 56882·PAYLOAD·🇺🇸 United States

打ち上げ Jun 12, 2023 から Cape Canaveral Space Force Station

Loading…

次のパス (今後24時間)

TLE

最新Source: CelesTrak SupGP

元期: Sep 15, 2026, 01:36 UTC

1 56882C 23083G   26258.06715278  .00031032  00000+0  11238-2 0  2587
2 56882  43.0022  95.5931 0001337 271.3343 117.5554 15.27567281    14

AllMySatでSTARLINK-6175をリアルタイム追跡

Download on the App Store